Powrót do katalogu

STARLINK-36855

AktywnyŁącznośćSSO
NORAD 68121·PAYLOAD·🇺🇸 United States

Wystrzelony Mar 8, 2026 z Vandenberg Space Force Base

Loading…

Następne Przeloty (najbliższe 24 godziny)

TLE

ŚwieżeSource: CelesTrak SupGP

Epoka: Sep 14, 2026, 22:44 UTC

1 68121C 26044W   26257.94770833 -.00062556  00000+0 -19420-2 0  2577
2 68121  97.2853 217.0253 0001742  91.6162 137.8572 15.33467705    18

Śledź STARLINK-36855 w czasie rzeczywistym z AllMySat

Download on the App Store